[[{"header":{"parameterUnit":"m.s-1","parameterCategory":1,"la1":30.2991,"la2":30.254,"lo1":-89.0895,"lo2":-89.0444,"dy":0.0017,"dx":0.0017,"nx":28,"ny":28,"refTime":"2024-05-26T21:00:00:Z","depth":0,"parameterNumber":2,"parameterNumberName":"U-component_of_WINDS"},"data":[0,0,0,0,0,0,0,0,0,0,0,0,0,0,0,0,0,0,0,0,0,0,0,0,0,0,0,0,0,0,0,0,0,0,0,0,0,0,0,0,0,0,0,0,0,0,0,0,0,0,0,0,0,0,0,0,0,0,1.1401,1.1403,0,1.157,1.1572,1.1574,1.1637,1.1637,1.1636,1.1636,1.1811,1.1816,1.1821,0,0,0,0,0,0,0,0,0,0,0,0,0,1.1132,1.1136,1.1401,1.1403,1.1405,1.157,1.1572,1.1575,1.1637,1.1637,1.1636,1.1635,1.1809,1.1815,1.1821,0,0,0,0,0,0,0,0,0,0,0,0,0,1.127,1.1138,1.14,1.1456,1.1463,1.1569,1.1572,1.1575,1.1637,1.1637,1.1636,1.1635,1.1807,1.1815,1.1822,1.1886,0,0,1.1846,1.1849,0,0,0,0,0,0,0,0,1.1262,1.1279,1.1446,1.1452,1.146,1.1582,1.1542,1.168,1.1638,1.1571,1.1636,1.1635,1.1735,1.1749,1.1783,1.1895,1.1902,1.1847,1.1851,1.1855,1.1857,0,0,0,0,0,0,0,1.1252,1.1273,1.1468,1.1448,1.1457,1.1473,1.1491,1.1568,1.1656,1.1577,1.1582,1.1601,1.1739,1.1775,1.1787,1.1905,1.1846,1.1853,1.1858,1.1861,1.2077,1.2078,0,0,0,0,0,0,1.1233,1.1264,1.1462,1.1473,1.1357,1.1478,1.1499,1.1544,1.1655,1.1671,1.1602,1.1603,1.1762,1.1778,1.1794,1.1876,1.1855,1.1862,1.1866,1.2076,1.2077,1.2079,0,0,0,0,0,0,1.1227,1.125,1.1456,1.137,1.1397,1.1484,1.1533,1.1547,1.1583,1.1674,1.169,1.1622,1.1762,1.1783,1.1863,1.1882,1.1865,1.1872,1.2075,1.2077,1.2078,1.204,0,0,0,0,0,0,1.1219,1.1248,1.1273,1.137,1.1402,1.1521,1.1534,1.1551,1.1596,1.16,1.1697,1.1712,1.1763,1.1851,1.187,1.1893,1.1878,1.2073,1.2076,1.2078,1.204,1.204,1.204,0,0,0,0,0,1.1209,1.1256,1.1274,1.1297,1.1435,1.1522,1.154,1.1597,1.1598,1.1624,1.1682,1.1709,1.1877,1.1858,1.1881,1.1906,1.2072,1.2075,1.2077,1.204,1.204,1.204,0,0,0,0,0,0,1.1159,1.127,1.1291,1.137,1.1436,1.1533,1.1567,1.1596,1.1664,1.1665,1.1733,1.1754,1.1828,1.1876,1.1853,1.1974,1.1977,1.1984,1.194,1.1941,1.1941,1.1928,1.1885,0,0,0,0,0,1.1157,1.1219,1.1312,1.1373,1.1405,1.148,1.1521,1.1558,1.163,1.1659,1.1723,1.1791,1.186,1.1903,1.1971,1.2047,1.2069,1.2075,1.2075,1.2075,1.208,1.2123,1.2127,1.2087,1.2087,1.2087,0,0,1.1154,1.1222,1.1257,1.1365,1.1421,1.1483,1.1504,1.1569,1.1616,1.1669,1.1748,1.1797,1.1878,1.1956,1.1994,1.1998,1.2096,1.2078,1.2077,1.2083,1.2126,1.213,1.2133,1.2088,1.2088,1.2088,0,0,1.118,1.1238,1.1294,1.135,1.1434,1.1483,1.1497,1.1589,1.1624,1.1704,1.1745,1.1802,1.1918,1.1974,1.2017,1.2063,1.2091,1.2084,1.2085,1.2126,1.2129,1.2132,1.2148,1.2153,1.2089,1.2089,1.2089,0,1.1165,1.1261,1.132,1.1383,1.1429,1.1479,1.1537,1.1588,1.169,1.172,1.1723,1.1869,1.1928,1.2019,1.203,1.2064,1.2081,1.2073,1.2124,1.2128,1.2131,1.2147,1.2153,1.2087,1.2087,1.2087,1.2088,0,1.1239,1.1304,1.134,1.1436,1.1486,1.1546,1.1614,1.1658,1.1691,1.1741,1.1821,1.1893,1.1976,1.2,1.2034,1.2096,1.2096,1.211,1.2115,1.2133,1.2149,1.2155,1.2085,1.2085,1.2086,1.2086,0,0,1.1238,1.1366,1.1378,1.1422,1.1518,1.157,1.1632,1.1712,1.1748,1.1816,1.187,1.1967,1.198,1.203,1.207,1.2106,1.2137,1.2116,1.2119,1.2117,1.221,1.2198,1.2204,1.2156,1.2158,1.2159,1.2203,0,1.1276,1.1389,1.1444,1.1533,1.1594,1.1642,1.1696,1.1761,1.1808,1.1867,1.192,1.1987,1.2,1.203,1.2068,1.2125,1.2157,1.2123,1.2207,1.2209,1.2184,1.2213,1.2201,1.2238,1.2209,1.221,1.2211,0,1.1336,1.1403,1.1498,1.1586,1.1614,1.1661,1.1739,1.1794,1.1869,1.1901,1.1955,1.1994,1.2061,1.2061,1.2154,1.213,1.2167,1.2201,1.2204,1.2214,1.2211,1.2223,1.2252,1.2257,1.2222,1.2221,1.222,0,1.1325,1.1439,1.1511,1.1547,1.1652,1.1684,1.1729,1.1803,1.1847,1.1915,1.1945,1.202,1.2061,1.2118,1.2176,1.217,1.2264,1.2268,1.2292,1.229,1.231,1.2307,1.2345,1.2334,1.2334,1.2334,1.2334,0,1.1361,1.1417,1.1507,1.1551,1.1615,1.1677,1.1739,1.1788,1.1853,1.1907,1.1953,1.2003,1.2077,1.2136,1.2182,1.2252,1.2271,1.2299,1.231,1.2294,1.2291,1.232,1.2318,1.2335,1.2335,1.2335,1.2334,0,1.136,1.1422,1.1503,1.1595,1.162,1.1663,1.1742,1.1786,1.1836,1.1904,1.1923,1.2001,1.2073,1.2137,1.2233,1.2264,1.2335,1.235,1.231,1.2316,1.2336,1.2333,1.2393,1.2404,1.2386,1.2386,1.2386,0,1.1379,1.1423,1.152,1.1559,1.1603,1.1666,1.1712,1.1775,1.182,1.1908,1.1941,1.2017,1.208,1.2193,1.2258,1.2331,1.2348,1.2364,1.2359,1.2342,1.2348,1.2344,1.2349,1.2363,1.2363,1.2363,1.2363,0,1.1406,1.1434,1.1498,1.1572,1.1625,1.1686,1.175,1.1779,1.1854,1.1903,1.1977,1.2026,1.2123,1.2197,1.2277,1.2324,1.2356,1.2364,1.2373,1.2357,1.2332,1.2346,1.2308,1.2362,1.2362,1.2362,1.2362,1.2363,1.1415,1.1456,1.153,1.16,1.1653,1.1711,1.1757,1.1812,1.1875,1.1958,1.1992,1.2066,1.2139,1.225,1.2297,1.2357,1.2363,1.2376,1.238,1.2382,1.2379,1.2323,1.2372,1.2372,1.2372,1.2372,1.2372,0,1.1444,1.1494,1.1557,1.1643,1.1697,1.1722,1.1793,1.1837,1.1902,1.1967,1.2028,1.2113,1.2185,1.2255,1.2331,1.2365,1.2382,1.2383,1.2381,1.2391,1.237,1.2354,1.2368,1.2368,1.2368,1.2368,1.2368,1.2368,1.1465,1.1536,1.1573,1.1671,1.1721,1.1794,1.1832,1.1886,1.1938,1.203,1.209,1.2135,1.2202,1.2283,1.235,1.2369,1.2394,1.2391,1.2414,1.2393,1.2393,1.2392,1.2378,1.2396,1.2396,1.2431,1.2431,1.2431]},{"header":{"parameterUnit":"m.s-1","parameterCategory":1,"la1":30.2991,"la2":30.254,"lo1":-89.0895,"lo2":-89.0444,"dy":0.0017,"dx":0.0017,"nx":28,"ny":28,"refTime":"2024-05-26T21:00:00:Z","depth":0,"parameterNumber":3,"parameterNumberName":"V-component_of_WINDS"},"data":[0,0,0,0,0,0,0,0,0,0,0,0,0,0,0,0,0,0,0,0,0,0,0,0,0,0,0,0,0,0,0,0,0,0,0,0,0,0,0,0,0,0,0,0,0,0,0,0,0,0,0,0,0,0,0,0,0,0,4.8249,4.8248,0,4.8184,4.8183,4.8183,4.8139,4.8139,4.8139,4.8139,4.8065,4.8064,4.8062,0,0,0,0,0,0,0,0,0,0,0,0,0,4.833,4.8328,4.8249,4.8248,4.8247,4.8184,4.8183,4.8182,4.8139,4.8139,4.8139,4.8138,4.8066,4.8064,4.8062,0,0,0,0,0,0,0,0,0,0,0,0,0,4.8283,4.8328,4.8249,4.8218,4.8215,4.8184,4.8183,4.8182,4.814,4.8139,4.8139,4.8138,4.8067,4.8064,4.8062,4.8054,0,0,4.8054,4.8053,0,0,0,0,0,0,0,0,4.8285,4.828,4.8224,4.822,4.8217,4.817,4.8185,4.8139,4.814,4.8168,4.8139,4.8138,4.81,4.8095,4.8083,4.8051,4.8048,4.8054,4.8052,4.8051,4.805,0,0,0,0,0,0,0,4.8289,4.8282,4.8223,4.8223,4.8219,4.8206,4.8199,4.8176,4.8137,4.8165,4.8162,4.8156,4.8098,4.8086,4.8081,4.8047,4.8054,4.8051,4.805,4.8049,4.8006,4.8006,0,0,0,0,0,0,4.8297,4.8285,4.8225,4.8221,4.8251,4.8205,4.8197,4.8185,4.8137,4.8129,4.8156,4.8154,4.809,4.8084,4.8078,4.8068,4.8051,4.8049,4.8047,4.8006,4.8006,4.8007,0,0,0,0,0,0,4.8299,4.8293,4.8228,4.8252,4.8243,4.8204,4.8191,4.8184,4.8172,4.813,4.8122,4.8151,4.809,4.8082,4.8061,4.8064,4.8047,4.8045,4.8005,4.8006,4.8006,4.8046,0,0,0,0,0,0,4.8302,4.8294,4.8292,4.8253,4.8242,4.8214,4.8191,4.8183,4.8168,4.8165,4.8123,4.8116,4.8089,4.8065,4.8059,4.8061,4.8043,4.8005,4.8005,4.8006,4.8044,4.8047,4.8051,0,0,0,0,0,4.8305,4.8303,4.8292,4.8285,4.8239,4.8214,4.8208,4.8178,4.8169,4.8166,4.8139,4.8117,4.8065,4.8064,4.8056,4.8057,4.8004,4.8005,4.8006,4.8042,4.8047,4.805,0,0,0,0,0,0,4.8341,4.8298,4.8284,4.827,4.8247,4.8207,4.8202,4.8184,4.816,4.8157,4.812,4.8111,4.8094,4.8073,4.8072,4.8048,4.8032,4.8032,4.8062,4.8066,4.807,4.8075,4.8041,0,0,0,0,0,4.8348,4.8333,4.8295,4.8286,4.8275,4.8241,4.8229,4.8209,4.8181,4.817,4.8142,4.8115,4.8092,4.8078,4.8055,4.8041,4.8031,4.8038,4.8041,4.8044,4.8044,4.8036,4.8038,4.8009,4.8009,4.8009,0,0,4.836,4.8335,4.8327,4.8293,4.8272,4.8256,4.8233,4.8216,4.8204,4.8167,4.8147,4.8125,4.8092,4.8075,4.8066,4.8057,4.805,4.8045,4.8048,4.8046,4.8037,4.804,4.8042,4.801,4.801,4.801,0,0,4.8376,4.8355,4.8347,4.8327,4.8297,4.8274,4.8273,4.8236,4.8221,4.8201,4.8174,4.8157,4.8119,4.8097,4.8081,4.809,4.8069,4.8083,4.8101,4.8093,4.8096,4.8097,4.8101,4.8103,4.8083,4.8083,4.8084,0,4.8395,4.8372,4.8344,4.833,4.8316,4.8285,4.8275,4.8257,4.8219,4.8209,4.82,4.8154,4.8129,4.8107,4.811,4.8097,4.8093,4.8088,4.8098,4.81,4.8101,4.8104,4.8106,4.8085,4.8085,4.8085,4.8085,0,4.8398,4.8382,4.8378,4.8347,4.8331,4.832,4.8288,4.8276,4.8258,4.8236,4.8216,4.8186,4.8157,4.815,4.813,4.8125,4.8121,4.8106,4.8089,4.8106,4.8109,4.811,4.8088,4.8088,4.8087,4.8087,0,0,4.8433,4.8388,4.8387,4.8372,4.8338,4.8324,4.8311,4.8285,4.8276,4.8251,4.8239,4.8208,4.8195,4.8176,4.8154,4.8148,4.8158,4.8133,4.8131,4.8139,4.8152,4.8164,4.8166,4.8144,4.8145,4.8145,4.8155,0,4.8443,4.8421,4.8395,4.838,4.8366,4.8337,4.8325,4.8302,4.8282,4.8265,4.8241,4.8221,4.8204,4.8193,4.8185,4.8159,4.816,4.8157,4.8131,4.8131,4.8141,4.8167,4.818,4.8191,4.8155,4.8156,4.8156,0,4.8452,4.8433,4.8418,4.8386,4.8379,4.8369,4.8344,4.8329,4.8302,4.8287,4.8268,4.8246,4.8229,4.8215,4.8191,4.819,4.8178,4.8163,4.8163,4.8159,4.8144,4.8164,4.8193,4.8195,4.8157,4.8157,4.8157,0,4.8481,4.845,4.8437,4.8426,4.8388,4.8382,4.8366,4.8339,4.8325,4.8303,4.8294,4.8269,4.8255,4.8236,4.8206,4.8199,4.8186,4.8169,4.8172,4.8173,4.8171,4.8171,4.8198,4.8163,4.8162,4.8162,4.8162,0,4.8495,4.8487,4.845,4.8442,4.8432,4.8403,4.8393,4.8373,4.835,4.8337,4.8309,4.8297,4.8259,4.8242,4.8219,4.8203,4.8197,4.8184,4.8178,4.8186,4.8188,4.8178,4.8176,4.8163,4.8163,4.8163,4.8163,0,4.8525,4.85,4.8484,4.8451,4.8442,4.8437,4.8407,4.8398,4.8377,4.8361,4.8355,4.8321,4.83,4.8269,4.8237,4.8221,4.8209,4.8199,4.822,4.8216,4.8222,4.8222,4.8243,4.8245,4.8208,4.8208,4.8209,0,4.8536,4.853,4.8497,4.8488,4.8473,4.8458,4.8445,4.8416,4.8403,4.8373,4.8367,4.8345,4.8325,4.8292,4.8264,4.824,4.8229,4.8238,4.8225,4.8235,4.823,4.8231,4.823,4.8241,4.8242,4.8242,4.8242,0,4.8559,4.8548,4.8531,4.8512,4.8498,4.848,4.846,4.8454,4.842,4.8407,4.8387,4.8372,4.8342,4.8319,4.8292,4.8273,4.8252,4.8247,4.8247,4.8256,4.8268,4.8262,4.8229,4.8247,4.8246,4.8246,4.8246,4.8245,4.858,4.8574,4.855,4.8533,4.8517,4.85,4.849,4.8469,4.8452,4.8427,4.841,4.8391,4.8364,4.8326,4.8308,4.8292,4.8283,4.8282,4.8282,4.8282,4.8286,4.8271,4.8286,4.8286,4.8286,4.8286,4.8286,0,4.8602,4.8586,4.8571,4.8547,4.8534,4.8518,4.8496,4.8485,4.847,4.8448,4.843,4.8407,4.8386,4.8357,4.8333,4.8325,4.8315,4.832,4.832,4.8317,4.8295,4.8298,4.8329,4.8329,4.8329,4.8329,4.8329,4.8329,4.8612,4.8601,4.8587,4.8567,4.855,4.8534,4.8523,4.8507,4.8489,4.8466,4.8449,4.8431,4.8406,4.8381,4.836,4.8352,4.8345,4.8353,4.8342,4.8322,4.8318,4.8314,4.8317,4.8351,4.8351,4.8365,4.8365,4.8365]}]]